This demonstration page uses our WeatherBlox Daily Observations layout. Learn more.

Left ArrowRight Arrow

34.74481, -87.66753

Hourly Observations for February 5, 2018

Temp ( °F °C ) Dew Point ( °F °C ) Humidity (%) Winds ( mph kmh ) Pressure ( in mb ) Visibility ( mi km ) Precip ( " mm )
12:53 am 00:53 Cloudy 36 2.2 27 -2.8 70 70 N 10 17 30.22 1024 9 14 0.00 0.00
1:53 am 01:53 Mostly Cloudy 33 0.6 23 -5 66 66 NNW 9 15 30.24 1024 10 16 0.00 0.00
2:41 am 02:41 Mostly Cloudy 31 -0.6 23 -5 72 72 NNW 9 15 30.27 1025 10 16 0.00 0.00
2:53 am 02:53 Cloudy 31 -0.6 23 -5 72 72 N 9 15 30.25 1024 10 16 0.00 0.00
3:53 am 03:53 Cloudy 31 -0.6 22 -5.6 69 69 N 12 19 30.26 1025 10 16 0.00 0.00
4:53 am 04:53 Cloudy 30 -1.1 21 -6.1 69 69 NNE 8 13 30.27 1025 10 16 0.00 0.00
5:41 am 05:41 Partly Cloudy 28 -2.2 19 -7.2 69 69 NE 12 19 30.30 1026 10 16 0.00 0.00
5:53 am 05:53 Mostly Clear 28 -2.2 19 -7.2 69 69 NE 12 19 30.29 1026 10 16 0.00 0.00
6:53 am 06:53 Mostly Cloudy 28 -2.2 19 -7.2 69 69 NE 7 11 30.30 1026 10 16 0.00 0.00
7:24 am 07:24 Partly Cloudy 27 -2.8 18 -7.8 69 69 ENE 10 17 30.33 1027 10 16 0.00 0.00
7:53 am 07:53 Sunny 27 -2.8 19 -7.2 72 72 NE 12 19 30.31 1026 10 16 0.00 0.00
8:53 am 08:53 Partly Cloudy 29 -1.7 19 -7.2 66 66 ENE 10 17 30.32 1027 10 16 0.00 0.00
9:53 am 09:53 Sunny 30 -1.1 19 -7.2 64 64 E 9 15 30.32 1027 10 16 0.00 0.00
10:53 am 10:53 Sunny 32 0 21 -6.1 64 64 E 9 15 30.30 1026 10 16 0.00 0.00
11:53 am 11:53 Sunny 35 1.7 23 -5 61 61 ESE 9 15 30.26 1025 10 16 0.00 0.00
12:53 pm 12:53 Sunny 37 2.8 23 -5 57 57 S 7 11 30.25 1024 10 16 0.00 0.00
1:53 pm 13:53 Sunny 40 4.4 24 -4.4 53 53 Calm 30.22 1024 10 16 0.00 0.00
2:53 pm 14:53 Sunny 42 5.6 26 -3.3 53 53 VRB 3 6 30.20 1023 10 16 0.00 0.00
3:53 pm 15:53 Sunny 44 6.7 23 -5 43 43 Calm 30.19 1022 10 16 0.00 0.00
4:53 pm 16:53 Sunny 43 6.1 27 -2.8 53 53 E 5 7 30.19 1022 10 16 0.00 0.00
5:53 pm 17:53 Clear 39 3.9 27 -2.8 62 62 E 9 15 30.17 1022 10 16 0.00 0.00
6:53 pm 18:53 Clear 36 2.2 26 -3.3 67 67 ESE 6 9 30.18 1022 10 16 0.00 0.00
7:53 pm 19:53 Clear 34 1.1 27 -2.8 76 76 Calm 30.19 1022 10 16 0.00 0.00
8:53 pm 20:53 Partly Cloudy 34 1.1 27 -2.8 76 76 E 3 6 30.18 1022 10 16 0.00 0.00
9:53 pm 21:53 Cloudy 38 3.3 29 -1.7 70 70 Calm 30.19 1022 10 16 0.00 0.00
10:53 pm 22:53 Cloudy 40 4.4 30 -1.1 68 68 Calm 30.21 1023 10 16 0.00 0.00
11:53 pm 23:53 Cloudy 41 5 31 -0.6 67 67 Calm 30.21 1023 10 16 0.00 0.00

Powered by AerisWeather